Location: Nitra
(0.0000°N, 18.0833°E)
Time: 18:41:12
(UTC+01:00)

Meteor 2-21 Rocket - Pass Details

Date: 24 January 2021
Orbit: 936 x 967 km, 82.6° (Epoch: 01 March)

Event Time Altitude Azimuth Distance (km) Brightness Sun altitude
Rises 19:28:13 0° 183° (S) 3,593 7.8 -20.8°
Reaches altitude 10° 19:30:42 10° 183° (S) 2,647 7.1 -21.4°
Maximum altitude 19:36:45 89° 96° (E) 940 4.3 -22.8°
Enters shadow 19:41:09 20° 4° (N) 2,034 5.9 -23.8°
